THA317 VTBS-VABB

Flight info

Callsign THA317
Flight time 3h 49m
Altitude 40000
Route PASTO1G PASTO L301 BUSBO L505 OPAKA EMRAK2A
Aircraft B772/H-SDE2E3FGHIJ5LORVWXY/LB1D1

Departure

Time 2026-05-05 04:30
Airport Suvarnabhumi Airport (VTBS)

Arrival

Time 2026-05-05 08:19
Airport Chhatrapati Shivaji Maharaj International Airport (VABB)
Time Latitude Longitude Altitude Speed Heading
2026-05-05 03:19 13.68942 100.75306 18 ft 0 kts 103°
2026-05-05 04:14 13.68946 100.75287 18 ft 4 kts 105°
2026-05-05 04:14 13.68953 100.75263 18 ft 1 kts 104°
2026-05-05 04:14 13.68958 100.75239 19 ft 4 kts 93°
2026-05-05 04:15 13.68956 100.75214 21 ft 2 kts 72°
2026-05-05 04:15 13.68952 100.75199 20 ft 4 kts 105°
2026-05-05 04:15 13.68958 100.75177 22 ft 3 kts 104°
2026-05-05 04:15 13.68965 100.75151 22 ft 4 kts 104°
2026-05-05 04:16 13.68968 100.75137 22 ft 1 kts 104°
2026-05-05 04:16 13.68969 100.75137 22 ft 0 kts 104°
2026-05-05 04:17 13.68968 100.75137 22 ft 1 kts 104°
2026-05-05 04:18 13.68958 100.75179 22 ft 10 kts 104°
2026-05-05 04:18 13.68952 100.75197 20 ft 4 kts 113°
2026-05-05 04:18 13.68918 100.75216 17 ft 7 kts 176°
2026-05-05 04:18 13.68856 100.75202 17 ft 12 kts 194°
2026-05-05 04:19 13.68751 100.75176 17 ft 19 kts 194°
2026-05-05 04:19 13.68643 100.75146 17 ft 10 kts 195°
2026-05-05 04:19 13.68600 100.75097 17 ft 9 kts 262°
2026-05-05 04:19 13.68613 100.75029 17 ft 11 kts 283°
2026-05-05 04:20 13.68636 100.74931 17 ft 17 kts 284°
2026-05-05 04:20 13.68669 100.74801 17 ft 20 kts 284°
2026-05-05 04:20 13.68708 100.74650 18 ft 24 kts 284°
2026-05-05 04:20 13.68749 100.74486 18 ft 24 kts 285°
2026-05-05 04:21 13.68790 100.74323 18 ft 24 kts 285°
2026-05-05 04:21 13.68826 100.74179 18 ft 15 kts 284°
2026-05-05 04:21 13.68875 100.74125 18 ft 11 kts 350°
2026-05-05 04:21 13.68946 100.74136 18 ft 11 kts 13°
2026-05-05 04:22 13.69018 100.74155 18 ft 11 kts 14°
2026-05-05 04:22 13.69090 100.74174 17 ft 11 kts 14°
2026-05-05 04:22 13.69175 100.74197 17 ft 15 kts 14°
2026-05-05 04:22 13.69278 100.74223 17 ft 16 kts 14°
2026-05-05 04:23 13.69390 100.74252 17 ft 18 kts 14°
2026-05-05 04:23 13.69521 100.74287 17 ft 21 kts 14°
2026-05-05 04:23 13.69674 100.74327 17 ft 25 kts 14°
2026-05-05 04:23 13.69815 100.74364 17 ft 18 kts 14°
2026-05-05 04:24 13.69951 100.74400 18 ft 22 kts 14°
2026-05-05 04:24 13.70116 100.74443 18 ft 25 kts 14°
2026-05-05 04:24 13.70256 100.74480 18 ft 16 kts 14°
2026-05-05 04:25 13.70341 100.74414 18 ft 7 kts 286°
2026-05-05 04:25 13.70342 100.74365 19 ft 7 kts 261°
2026-05-05 04:25 13.70332 100.74319 19 ft 5 kts 242°
2026-05-05 04:25 13.70327 100.74313 20 ft 0 kts 232°
2026-05-05 04:26 13.70321 100.74310 20 ft 2 kts 213°
2026-05-05 04:26 13.70296 100.74300 19 ft 7 kts 198°
2026-05-05 04:26 13.70267 100.74292 19 ft 1 kts 195°
2026-05-05 04:26 13.70258 100.74289 19 ft 1 kts 198°
2026-05-05 04:27 13.70248 100.74286 19 ft 2 kts 201°
2026-05-05 04:27 13.70236 100.74282 19 ft 2 kts 192°
2026-05-05 04:27 13.70234 100.74282 19 ft 0 kts 192°
2026-05-05 04:27 13.70227 100.74280 19 ft 10 kts 192°
2026-05-05 04:28 13.70195 100.74273 19 ft 28 kts 192°
2026-05-05 04:29 13.69878 100.74191 17 ft 89 kts 194°
2026-05-05 04:29 13.69049 100.73970 18 ft 155 kts 195°
2026-05-05 04:29 13.67930 100.73675 529 ft 166 kts 192°
2026-05-05 04:30 13.66822 100.73396 1349 ft 162 kts 194°
2026-05-05 04:30 13.65716 100.73101 1999 ft 166 kts 194°
2026-05-05 04:30 13.64585 100.72799 2419 ft 170 kts 194°
2026-05-05 04:30 13.63429 100.72492 2867 ft 172 kts 194°
2026-05-05 04:31 13.62260 100.72183 3283 ft 178 kts 193°
2026-05-05 04:31 13.60987 100.71846 3503 ft 201 kts 193°
2026-05-05 04:31 13.59548 100.71467 3701 ft 226 kts 193°
2026-05-05 04:31 13.57940 100.71042 3904 ft 251 kts 193°
2026-05-05 04:32 13.56180 100.70578 4306 ft 266 kts 193°
2026-05-05 04:32 13.54494 100.69747 4796 ft 278 kts 220°
2026-05-05 04:32 13.53452 100.68100 5442 ft 284 kts 253°
2026-05-05 04:32 13.53306 100.66079 6136 ft 288 kts 278°
2026-05-05 04:33 13.53748 100.64066 6683 ft 292 kts 284°
2026-05-05 04:33 13.54269 100.62034 7363 ft 293 kts 285°
2026-05-05 04:33 13.54834 100.60027 8029 ft 292 kts 293°
2026-05-05 04:33 13.56021 100.58332 8515 ft 297 kts 322°
2026-05-05 04:34 13.57846 100.57383 9177 ft 295 kts 347°
2026-05-05 04:34 13.59875 100.57208 9758 ft 295 kts
2026-05-05 04:34 13.61272 100.57255 10072 ft 299 kts
2026-05-05 04:34 13.64129 100.57365 10394 ft 325 kts
2026-05-05 04:35 13.66474 100.57444 10564 ft 349 kts
2026-05-05 04:35 13.68966 100.57520 10924 ft 365 kts
2026-05-05 04:35 13.71536 100.57590 11577 ft 373 kts
2026-05-05 04:35 13.73260 100.57636 12112 ft 376 kts
2026-05-05 04:36 13.75882 100.57700 12955 ft 377 kts
2026-05-05 04:36 13.78489 100.57304 13565 ft 385 kts 340°
2026-05-05 04:36 13.80851 100.56009 14169 ft 389 kts 328°
2026-05-05 04:36 13.83159 100.54493 14826 ft 395 kts 328°
2026-05-05 04:37 13.85478 100.52987 15680 ft 396 kts 328°
2026-05-05 04:37 13.87835 100.51486 16470 ft 401 kts 328°
2026-05-05 04:37 13.90230 100.49977 17236 ft 406 kts 328°
2026-05-05 04:37 13.92514 100.48281 17851 ft 409 kts 314°
2026-05-05 04:38 13.94144 100.45865 18489 ft 415 kts 295°
2026-05-05 04:38 13.94979 100.43045 19302 ft 411 kts 279°
2026-05-05 04:38 13.95387 100.40108 19920 ft 418 kts 277°
2026-05-05 04:38 13.95754 100.37123 20610 ft 422 kts 277°
2026-05-05 04:39 13.96130 100.34125 21404 ft 424 kts 277°
2026-05-05 04:39 13.96530 100.31108 22183 ft 426 kts 277°
2026-05-05 04:39 13.96955 100.28058 22750 ft 434 kts 278°
2026-05-05 04:39 13.97393 100.24966 23462 ft 437 kts 278°
2026-05-05 04:40 13.97736 100.21852 24074 ft 440 kts 273°
2026-05-05 04:40 13.97855 100.18693 24592 ft 444 kts 271°
2026-05-05 04:40 13.97895 100.15507 25115 ft 448 kts 270°
2026-05-05 04:40 13.97951 100.12288 25642 ft 451 kts 271°
2026-05-05 04:41 13.98050 100.09049 26161 ft 454 kts 271°
2026-05-05 04:41 13.98171 100.05791 26661 ft 457 kts 272°
2026-05-05 04:41 13.98294 100.02509 27114 ft 460 kts 271°
2026-05-05 04:41 13.98413 99.99201 27578 ft 464 kts 271°
2026-05-05 04:42 13.98531 99.95869 28027 ft 467 kts 271°
2026-05-05 04:42 13.98649 99.92519 28459 ft 470 kts 271°
2026-05-05 04:42 13.98768 99.89150 28884 ft 472 kts 271°
2026-05-05 04:42 13.98886 99.85762 29303 ft 475 kts 271°
2026-05-05 04:43 13.99004 99.82352 29704 ft 478 kts 271°
2026-05-05 04:43 13.99123 99.78924 30053 ft 480 kts 271°
2026-05-05 04:43 13.99242 99.75479 30354 ft 482 kts 271°
2026-05-05 04:43 13.99361 99.72024 30671 ft 484 kts 271°
2026-05-05 04:44 13.99479 99.68564 30985 ft 484 kts 271°
2026-05-05 04:44 13.99598 99.65096 31276 ft 485 kts 271°
2026-05-05 04:44 13.99714 99.61656 31538 ft 487 kts 271°
2026-05-05 04:44 13.99832 99.58181 31826 ft 487 kts 271°
2026-05-05 04:45 13.99951 99.54654 32192 ft 485 kts 271°
2026-05-05 04:45 14.00066 99.51233 32601 ft 482 kts 271°
2026-05-05 04:45 14.00241 99.47789 32999 ft 480 kts 274°
2026-05-05 04:45 14.00542 99.44369 33367 ft 479 kts 276°
2026-05-05 04:46 14.00900 99.40969 33719 ft 478 kts 276°
2026-05-05 04:46 14.01271 99.37571 34065 ft 476 kts 276°
2026-05-05 04:46 14.01632 99.34188 34341 ft 475 kts 276°
2026-05-05 04:46 14.01978 99.30805 34591 ft 475 kts 276°
2026-05-05 04:47 14.02312 99.27424 34860 ft 475 kts 276°
2026-05-05 04:47 14.02638 99.24044 35152 ft 474 kts 276°
2026-05-05 04:47 14.02961 99.20671 35436 ft 473 kts 275°
2026-05-05 04:47 14.03282 99.17302 35718 ft 473 kts 275°
2026-05-05 04:48 14.03603 99.13937 36019 ft 472 kts 275°
2026-05-05 04:48 14.03924 99.10577 36320 ft 471 kts 276°
2026-05-05 04:48 14.04244 99.07226 36618 ft 470 kts 275°
2026-05-05 04:48 14.04565 99.03871 36925 ft 469 kts 275°
2026-05-05 04:49 14.04884 99.00531 37210 ft 469 kts 275°
2026-05-05 04:49 14.05201 98.97192 37526 ft 468 kts 275°
2026-05-05 04:49 14.05474 98.93861 37840 ft 466 kts 274°
2026-05-05 04:49 14.05696 98.90531 38146 ft 465 kts 274°
2026-05-05 04:50 14.05897 98.87207 38433 ft 465 kts 274°
2026-05-05 04:50 14.06095 98.83884 38705 ft 464 kts 274°
2026-05-05 04:50 14.06296 98.80572 38917 ft 463 kts 274°
2026-05-05 04:50 14.06502 98.77261 39127 ft 463 kts 274°
2026-05-05 04:51 14.06713 98.73950 39329 ft 463 kts 274°
2026-05-05 04:51 14.06926 98.70643 39537 ft 462 kts 274°
2026-05-05 04:51 14.07139 98.67342 39755 ft 462 kts 274°
2026-05-05 04:51 14.07353 98.64035 39861 ft 464 kts 274°
2026-05-05 04:52 14.07567 98.60713 39900 ft 465 kts 274°
2026-05-05 04:52 14.07991 98.54107 39934 ft 464 kts 274°
2026-05-05 04:53 14.08411 98.47503 39930 ft 461 kts 274°
2026-05-05 04:53 14.08828 98.40923 39926 ft 459 kts 274°
2026-05-05 04:54 14.09243 98.34365 39931 ft 459 kts 274°
2026-05-05 04:54 14.09656 98.27793 39925 ft 460 kts 274°
2026-05-05 04:55 14.10146 98.21215 39922 ft 461 kts 277°
2026-05-05 04:55 14.11501 98.14763 39924 ft 462 kts 284°
2026-05-05 04:56 14.13152 98.08364 39911 ft 463 kts 284°
2026-05-05 04:56 14.14797 98.01942 39908 ft 463 kts 284°
2026-05-05 04:57 14.16417 97.95519 39911 ft 463 kts 284°
2026-05-05 04:57 14.18017 97.89120 39909 ft 464 kts 284°
2026-05-05 04:58 14.19622 97.82687 39908 ft 464 kts 284°
2026-05-05 04:58 14.21229 97.76241 39911 ft 464 kts 284°
2026-05-05 04:59 14.22831 97.69805 39912 ft 464 kts 284°
2026-05-05 04:59 14.24434 97.63363 39913 ft 464 kts 284°
2026-05-05 05:00 14.26033 97.56926 39911 ft 464 kts 284°
2026-05-05 05:00 14.27633 97.50479 39912 ft 464 kts 284°
2026-05-05 05:01 14.29232 97.44027 39914 ft 465 kts 284°
2026-05-05 05:01 14.30830 97.37572 39913 ft 465 kts 284°
2026-05-05 05:02 14.32428 97.31111 39914 ft 465 kts 284°
2026-05-05 05:02 14.34024 97.24645 39909 ft 466 kts 284°
2026-05-05 05:03 14.35622 97.18168 39916 ft 466 kts 284°
2026-05-05 05:03 14.37217 97.11690 39912 ft 466 kts 284°
2026-05-05 05:04 14.38811 97.05214 39911 ft 466 kts 284°
2026-05-05 05:04 14.40404 96.98731 39914 ft 466 kts 284°
2026-05-05 05:05 14.41996 96.92242 39909 ft 466 kts 284°
2026-05-05 05:05 14.43584 96.85763 39919 ft 466 kts 284°
2026-05-05 05:06 14.45169 96.79287 39926 ft 466 kts 284°
2026-05-05 05:06 14.46755 96.72803 39916 ft 466 kts 284°
2026-05-05 05:07 14.48338 96.66319 39915 ft 466 kts 284°
2026-05-05 05:07 14.49919 96.59834 39918 ft 466 kts 284°
2026-05-05 05:08 14.51501 96.53341 39917 ft 466 kts 284°
2026-05-05 05:08 14.53076 96.46864 39918 ft 466 kts 284°
2026-05-05 05:09 14.54642 96.40417 39917 ft 466 kts 284°
2026-05-05 05:09 14.56214 96.33938 39917 ft 466 kts 284°
2026-05-05 05:10 14.57786 96.27452 39917 ft 466 kts 284°
2026-05-05 05:10 14.59357 96.20962 39917 ft 466 kts 284°
2026-05-05 05:11 14.60926 96.14471 39916 ft 466 kts 284°
2026-05-05 05:11 14.62489 96.07993 39918 ft 466 kts 284°
2026-05-05 05:12 14.64055 96.01499 39916 ft 466 kts 284°
2026-05-05 05:12 14.65617 95.95012 39914 ft 466 kts 284°
2026-05-05 05:13 14.67176 95.88525 39913 ft 466 kts 283°
2026-05-05 05:13 14.68737 95.82028 39918 ft 466 kts 283°
2026-05-05 05:14 14.70293 95.75539 39920 ft 466 kts 283°
2026-05-05 05:14 14.71850 95.69038 39917 ft 466 kts 283°
2026-05-05 05:15 14.73403 95.62545 39916 ft 466 kts 283°
2026-05-05 05:15 14.74946 95.56086 39913 ft 466 kts 283°
2026-05-05 05:16 14.76496 95.49589 39917 ft 466 kts 283°
2026-05-05 05:16 14.78043 95.43095 39913 ft 466 kts 283°
2026-05-05 05:17 14.79341 95.37644 39916 ft 466 kts 283°
2026-05-05 05:17 14.81135 95.30092 39918 ft 466 kts 283°
2026-05-05 05:18 14.82428 95.24646 39917 ft 466 kts 283°
2026-05-05 05:18 14.83960 95.18182 39913 ft 466 kts 283°
2026-05-05 05:19 14.85500 95.11680 39915 ft 466 kts 283°
2026-05-05 05:19 14.87037 95.05180 39917 ft 466 kts 283°
2026-05-05 05:20 14.88572 94.98675 39916 ft 466 kts 283°
2026-05-05 05:20 14.90105 94.92176 39919 ft 466 kts 283°
2026-05-05 05:21 14.91640 94.85657 39914 ft 466 kts 283°
2026-05-05 05:21 14.93171 94.79146 39916 ft 466 kts 283°
2026-05-05 05:22 14.94700 94.72635 39917 ft 466 kts 283°
2026-05-05 05:22 14.96229 94.66117 39917 ft 466 kts 283°
2026-05-05 05:23 14.97746 94.59639 39918 ft 466 kts 283°
2026-05-05 05:23 14.99284 94.53064 39914 ft 467 kts 283°
2026-05-05 05:24 15.00796 94.46590 39913 ft 467 kts 283°
2026-05-05 05:24 15.02320 94.40058 39912 ft 467 kts 283°
2026-05-05 05:25 15.03842 94.33524 39915 ft 467 kts 283°
2026-05-05 05:25 15.05362 94.26992 39914 ft 467 kts 283°
2026-05-05 05:26 15.06879 94.20462 39916 ft 467 kts 283°
2026-05-05 05:26 15.08394 94.13929 39914 ft 467 kts 283°
2026-05-05 05:27 15.09908 94.07396 39913 ft 467 kts 283°
2026-05-05 05:27 15.12176 93.97587 39917 ft 467 kts 283°
2026-05-05 05:28 15.13685 93.91052 39917 ft 467 kts 283°
2026-05-05 05:28 15.15192 93.84515 39912 ft 467 kts 283°
2026-05-05 05:29 15.16696 93.77981 39922 ft 467 kts 283°
2026-05-05 05:29 15.18189 93.71487 39921 ft 467 kts 283°
2026-05-05 05:30 15.19690 93.64952 39922 ft 467 kts 283°
2026-05-05 05:30 15.21190 93.58407 39920 ft 467 kts 283°
2026-05-05 05:31 15.22688 93.51867 39919 ft 467 kts 283°
2026-05-05 05:31 15.24186 93.45314 39922 ft 467 kts 283°
2026-05-05 05:32 15.25682 93.38761 39921 ft 467 kts 283°
2026-05-05 05:32 15.27175 93.32211 39919 ft 467 kts 283°
2026-05-05 05:33 15.28667 93.25659 39920 ft 467 kts 283°
2026-05-05 05:33 15.30156 93.19106 39920 ft 467 kts 283°
2026-05-05 05:34 15.31645 93.12550 39920 ft 467 kts 283°
2026-05-05 05:34 15.33129 93.06002 39920 ft 467 kts 283°
2026-05-05 05:35 15.34613 92.99444 39918 ft 467 kts 283°
2026-05-05 05:35 15.36085 92.92932 39923 ft 467 kts 283°
2026-05-05 05:36 15.37565 92.86375 39924 ft 467 kts 283°
2026-05-05 05:36 15.39043 92.79818 39924 ft 467 kts 283°
2026-05-05 05:37 15.40519 92.73257 39918 ft 467 kts 283°
2026-05-05 05:37 15.41993 92.66700 39922 ft 467 kts 283°
2026-05-05 05:38 15.43490 92.60151 39924 ft 467 kts 284°
2026-05-05 05:38 15.45108 92.53630 39922 ft 467 kts 284°
2026-05-05 05:39 15.46738 92.47122 39919 ft 467 kts 284°
2026-05-05 05:39 15.48352 92.40605 39921 ft 467 kts 284°
2026-05-05 05:40 15.49956 92.34084 39921 ft 467 kts 284°
2026-05-05 05:40 15.51556 92.27562 39926 ft 467 kts 284°
2026-05-05 05:41 15.53158 92.21031 39922 ft 467 kts 284°
2026-05-05 05:41 15.54756 92.14506 39922 ft 467 kts 284°
2026-05-05 05:42 15.56356 92.07965 39921 ft 468 kts 284°
2026-05-05 05:42 15.57953 92.01428 39919 ft 468 kts 284°
2026-05-05 05:43 15.59543 91.94879 39925 ft 468 kts 283°
2026-05-05 05:43 15.61120 91.88332 39922 ft 468 kts 283°
2026-05-05 05:44 15.62684 91.81831 39917 ft 468 kts 283°
2026-05-05 05:44 15.64257 91.75285 39918 ft 468 kts 283°
2026-05-05 05:45 15.65829 91.68742 39922 ft 467 kts 283°
2026-05-05 05:45 15.67399 91.62195 39927 ft 467 kts 283°
2026-05-05 05:46 15.68966 91.55653 39922 ft 467 kts 283°
2026-05-05 05:46 15.70530 91.49112 39925 ft 467 kts 283°
2026-05-05 05:47 15.72094 91.42564 39926 ft 467 kts 283°
2026-05-05 05:47 15.73655 91.36018 39927 ft 467 kts 283°
2026-05-05 05:48 15.75213 91.29474 39920 ft 467 kts 283°
2026-05-05 05:48 15.76769 91.22932 39923 ft 467 kts 283°
2026-05-05 05:49 15.78324 91.16383 39921 ft 467 kts 283°
2026-05-05 05:49 15.79876 91.09839 39923 ft 467 kts 283°
2026-05-05 05:50 15.81430 91.03278 39922 ft 467 kts 283°
2026-05-05 05:50 15.82978 90.96731 39925 ft 467 kts 283°
2026-05-05 05:51 15.84527 90.90173 39925 ft 468 kts 283°
2026-05-05 05:51 15.86075 90.83605 39925 ft 468 kts 283°
2026-05-05 05:52 15.87622 90.77038 39923 ft 468 kts 283°
2026-05-05 05:52 15.89165 90.70473 39920 ft 468 kts 283°
2026-05-05 05:53 15.90698 90.63943 39927 ft 468 kts 283°
2026-05-05 05:53 15.92236 90.57384 39926 ft 468 kts 283°
2026-05-05 05:54 15.93773 90.50817 39922 ft 468 kts 283°
2026-05-05 05:54 15.95309 90.44249 39924 ft 467 kts 283°
2026-05-05 05:55 15.96842 90.37680 39926 ft 467 kts 283°
2026-05-05 05:55 15.98370 90.31126 39927 ft 467 kts 283°
2026-05-05 05:56 15.99897 90.24561 39924 ft 467 kts 283°
2026-05-05 05:56 16.01423 90.17997 39923 ft 467 kts 283°
2026-05-05 05:57 16.02973 90.11446 39924 ft 467 kts 283°
2026-05-05 05:57 16.04554 90.04907 39926 ft 467 kts 283°
2026-05-05 05:58 16.06135 89.98362 39925 ft 466 kts 283°
2026-05-05 05:58 16.07707 89.91821 39922 ft 466 kts 283°
2026-05-05 05:59 16.09272 89.85285 39924 ft 466 kts 283°
2026-05-05 05:59 16.10836 89.78744 39923 ft 466 kts 283°
2026-05-05 06:00 16.12396 89.72212 39927 ft 466 kts 283°
2026-05-05 06:00 16.13693 89.66774 39926 ft 466 kts 283°
2026-05-05 06:01 16.15504 89.59169 39922 ft 465 kts 283°
2026-05-05 06:01 16.16805 89.53700 39926 ft 465 kts 283°
2026-05-05 06:02 16.18610 89.46101 39923 ft 465 kts 283°
2026-05-05 06:02 16.20160 89.39562 39924 ft 465 kts 283°
2026-05-05 06:03 16.21459 89.34080 39922 ft 465 kts 283°
2026-05-05 06:03 16.22992 89.27595 39926 ft 465 kts 283°
2026-05-05 06:04 16.24536 89.21058 39926 ft 465 kts 283°
2026-05-05 06:04 16.26077 89.14523 39926 ft 464 kts 283°
2026-05-05 06:05 16.27614 89.08003 39923 ft 464 kts 283°
2026-05-05 06:05 16.29192 89.01489 39921 ft 464 kts 283°
2026-05-05 06:06 16.30788 88.94982 39914 ft 464 kts 283°
2026-05-05 06:06 16.32378 88.88474 39924 ft 464 kts 283°
2026-05-05 06:07 16.33961 88.81967 39919 ft 463 kts 283°
2026-05-05 06:07 16.35537 88.75468 39926 ft 463 kts 283°
2026-05-05 06:08 16.37112 88.68964 39909 ft 463 kts 283°
2026-05-05 06:08 16.38685 88.62462 39908 ft 463 kts 283°
2026-05-05 06:09 16.40256 88.55956 39906 ft 463 kts 283°
2026-05-05 06:09 16.41826 88.49448 39920 ft 463 kts 283°
2026-05-05 06:10 16.43394 88.42939 39925 ft 463 kts 283°
2026-05-05 06:10 16.44960 88.36429 39908 ft 464 kts 283°
2026-05-05 06:11 16.46527 88.29903 39908 ft 464 kts 283°
2026-05-05 06:11 16.48091 88.23382 39908 ft 464 kts 283°
2026-05-05 06:12 16.49652 88.16863 39908 ft 464 kts 283°
2026-05-05 06:12 16.51214 88.10332 39909 ft 464 kts 282°
2026-05-05 06:13 16.52763 88.03843 39908 ft 464 kts 282°
2026-05-05 06:13 16.54320 87.97312 39905 ft 465 kts 282°
2026-05-05 06:14 16.55878 87.90768 39907 ft 465 kts 282°
2026-05-05 06:14 16.57434 87.84223 39908 ft 465 kts 282°
2026-05-05 06:15 16.58986 87.77684 39905 ft 465 kts 282°
2026-05-05 06:15 16.60540 87.71128 39909 ft 465 kts 282°
2026-05-05 06:16 16.62089 87.64581 39903 ft 465 kts 282°
2026-05-05 06:16 16.63636 87.58037 39902 ft 465 kts 282°
2026-05-05 06:17 16.65180 87.51492 39903 ft 465 kts 282°
2026-05-05 06:17 16.66722 87.44949 39905 ft 464 kts 282°
2026-05-05 06:18 16.68259 87.38412 39898 ft 464 kts 282°
2026-05-05 06:18 16.69787 87.31910 39902 ft 464 kts 282°
2026-05-05 06:19 16.71321 87.25366 39901 ft 464 kts 282°
2026-05-05 06:19 16.72853 87.18824 39900 ft 464 kts 282°
2026-05-05 06:20 16.74389 87.12280 39900 ft 464 kts 282°
2026-05-05 06:20 16.75944 87.05756 39900 ft 464 kts 282°
2026-05-05 06:21 16.77503 86.99225 39898 ft 463 kts 282°
2026-05-05 06:21 16.79054 86.92704 39898 ft 463 kts 282°
2026-05-05 06:22 16.80603 86.86174 39898 ft 463 kts 282°
2026-05-05 06:22 16.82146 86.79653 39902 ft 462 kts 282°
2026-05-05 06:23 16.83685 86.73142 39895 ft 462 kts 282°
2026-05-05 06:23 16.85220 86.66638 39895 ft 461 kts 282°
2026-05-05 06:24 16.86752 86.60138 39893 ft 461 kts 282°
2026-05-05 06:24 16.88280 86.53648 39892 ft 460 kts 282°
2026-05-05 06:25 16.89540 86.48284 39893 ft 460 kts 282°
2026-05-05 06:25 16.89650 86.47818 39892 ft 460 kts 282°
2026-05-05 06:26 16.91141 86.41464 39894 ft 460 kts 282°
2026-05-05 06:26 16.92660 86.34978 39892 ft 460 kts 282°
2026-05-05 06:27 16.94937 86.25243 39892 ft 460 kts 282°
2026-05-05 06:28 16.96453 86.18751 39891 ft 460 kts 282°
2026-05-05 06:28 16.97966 86.12256 39893 ft 460 kts 282°
2026-05-05 06:29 16.99477 86.05765 39892 ft 460 kts 282°
2026-05-05 06:29 17.00987 85.99265 39889 ft 460 kts 282°
2026-05-05 06:30 17.02494 85.92771 39891 ft 460 kts 282°
2026-05-05 06:30 17.03999 85.86274 39887 ft 460 kts 282°
2026-05-05 06:31 17.05502 85.79777 39888 ft 460 kts 282°
2026-05-05 06:31 17.07004 85.73271 39887 ft 460 kts 282°
2026-05-05 06:32 17.08504 85.66765 39887 ft 460 kts 282°
2026-05-05 06:32 17.10001 85.60264 39885 ft 460 kts 282°
2026-05-05 06:33 17.11497 85.53759 39883 ft 460 kts 282°
2026-05-05 06:33 17.12981 85.47292 39884 ft 460 kts 282°
2026-05-05 06:34 17.14473 85.40780 39885 ft 461 kts 282°
2026-05-05 06:34 17.15963 85.34265 39887 ft 461 kts 282°
2026-05-05 06:35 17.17462 85.27752 39884 ft 461 kts 282°
2026-05-05 06:35 17.19012 85.21240 39883 ft 461 kts 282°
2026-05-05 06:36 17.20565 85.14740 39884 ft 461 kts 282°
2026-05-05 06:36 17.22114 85.08220 39883 ft 461 kts 282°
2026-05-05 06:37 17.23657 85.01698 39884 ft 462 kts 282°
2026-05-05 06:37 17.25196 84.95180 39885 ft 462 kts 282°
2026-05-05 06:38 17.26733 84.88660 39877 ft 462 kts 282°
2026-05-05 06:38 17.28270 84.82133 39881 ft 462 kts 282°
2026-05-05 06:39 17.29795 84.75647 39878 ft 462 kts 282°
2026-05-05 06:39 17.31336 84.69081 39878 ft 462 kts 282°
2026-05-05 06:40 17.32857 84.62592 39877 ft 462 kts 282°
2026-05-05 06:40 17.34385 84.56062 39877 ft 462 kts 282°
2026-05-05 06:41 17.35912 84.49529 39876 ft 462 kts 282°
2026-05-05 06:41 17.37503 84.43005 39879 ft 462 kts 283°
2026-05-05 06:42 17.39124 84.36490 39875 ft 462 kts 283°
2026-05-05 06:42 17.40734 84.29976 39876 ft 462 kts 283°
2026-05-05 06:43 17.42333 84.23468 39876 ft 462 kts 283°
2026-05-05 06:43 17.43928 84.16960 39878 ft 461 kts 283°
2026-05-05 06:44 17.45520 84.10455 39875 ft 461 kts 283°
2026-05-05 06:44 17.47112 84.03945 39869 ft 461 kts 283°
2026-05-05 06:45 17.48433 83.98530 39873 ft 461 kts 283°
2026-05-05 06:45 17.50279 83.90969 39868 ft 461 kts 283°
2026-05-05 06:46 17.51653 83.85532 39867 ft 461 kts 283°
2026-05-05 06:46 17.53317 83.79044 39868 ft 461 kts 283°
2026-05-05 06:47 17.55238 83.71512 39869 ft 461 kts 283°
2026-05-05 06:47 17.56617 83.66076 39865 ft 461 kts 283°
2026-05-05 06:48 17.58261 83.59581 39864 ft 460 kts 283°
2026-05-05 06:48 17.59901 83.53096 39868 ft 460 kts 283°
2026-05-05 06:49 17.61539 83.46608 39875 ft 460 kts 283°
2026-05-05 06:49 17.63164 83.40161 39876 ft 460 kts 283°
2026-05-05 06:50 17.64797 83.33671 39879 ft 460 kts 283°
2026-05-05 06:50 17.66427 83.27187 39885 ft 460 kts 283°
2026-05-05 06:51 17.68297 83.20767 39892 ft 461 kts 287°
2026-05-05 06:51 17.70377 83.14410 39882 ft 461 kts 287°
2026-05-05 06:52 17.72463 83.08048 39884 ft 461 kts 287°
2026-05-05 06:52 17.74528 83.01677 39877 ft 461 kts 287°
2026-05-05 06:53 17.76579 82.95304 39880 ft 461 kts 287°
2026-05-05 06:53 17.78623 82.88940 39885 ft 460 kts 287°
2026-05-05 06:54 17.80666 82.82570 39886 ft 460 kts 287°
2026-05-05 06:54 17.82710 82.76194 39898 ft 461 kts 287°
2026-05-05 06:55 17.84753 82.69814 39903 ft 460 kts 287°
2026-05-05 06:55 17.86789 82.63445 39907 ft 460 kts 287°
2026-05-05 06:56 17.88823 82.57080 39911 ft 460 kts 287°
2026-05-05 06:56 17.90852 82.50717 39915 ft 460 kts 287°
2026-05-05 06:57 17.92878 82.44357 39919 ft 459 kts 287°
2026-05-05 06:57 17.94892 82.38027 39931 ft 459 kts 287°
2026-05-05 06:58 17.96911 82.31674 39924 ft 459 kts 287°
2026-05-05 06:58 17.98929 82.25316 39920 ft 459 kts 287°
2026-05-05 06:59 18.00946 82.18954 39921 ft 459 kts 287°
2026-05-05 06:59 18.02960 82.12589 39908 ft 459 kts 287°
2026-05-05 07:00 18.04972 82.06227 39911 ft 459 kts 287°
2026-05-05 07:00 18.06980 81.99869 39910 ft 458 kts 287°
2026-05-05 07:01 18.09035 81.93525 39891 ft 458 kts 287°
2026-05-05 07:01 18.11125 81.87197 39894 ft 459 kts 288°
2026-05-05 07:02 18.13213 81.80853 39886 ft 459 kts 287°
2026-05-05 07:02 18.15291 81.74507 39880 ft 459 kts 287°
2026-05-05 07:03 18.17365 81.68156 39875 ft 459 kts 287°
2026-05-05 07:03 18.19438 81.61800 39879 ft 459 kts 287°
2026-05-05 07:04 18.21509 81.55445 39880 ft 459 kts 287°
2026-05-05 07:04 18.23581 81.49076 39881 ft 460 kts 287°
2026-05-05 07:05 18.25651 81.42708 39882 ft 460 kts 287°
2026-05-05 07:05 18.27716 81.36345 39887 ft 460 kts 287°
2026-05-05 07:06 18.29766 81.30023 39895 ft 460 kts 287°
2026-05-05 07:06 18.31827 81.23660 39897 ft 459 kts 287°
2026-05-05 07:07 18.33887 81.17290 39895 ft 459 kts 287°
2026-05-05 07:07 18.35940 81.10931 39902 ft 459 kts 287°
2026-05-05 07:08 18.37992 81.04570 39903 ft 459 kts 287°
2026-05-05 07:08 18.40040 80.98213 39909 ft 458 kts 287°
2026-05-05 07:09 18.42084 80.91859 39903 ft 458 kts 287°
2026-05-05 07:09 18.44128 80.85497 39909 ft 458 kts 287°
2026-05-05 07:10 18.46165 80.79148 39910 ft 458 kts 287°
2026-05-05 07:10 18.48203 80.72789 39908 ft 458 kts 287°
2026-05-05 07:11 18.50236 80.66438 39905 ft 458 kts 287°
2026-05-05 07:11 18.52271 80.60074 39916 ft 458 kts 287°
2026-05-05 07:12 18.54262 80.53703 39902 ft 458 kts 286°
2026-05-05 07:12 18.56163 80.47340 39902 ft 458 kts 286°
2026-05-05 07:13 18.58066 80.40939 39901 ft 458 kts 286°
2026-05-05 07:13 18.59975 80.34544 39898 ft 457 kts 286°
2026-05-05 07:14 18.61889 80.28146 39891 ft 457 kts 286°
2026-05-05 07:14 18.63799 80.21757 39889 ft 457 kts 286°
2026-05-05 07:15 18.65708 80.15362 39883 ft 457 kts 286°
2026-05-05 07:15 18.67611 80.08976 39889 ft 457 kts 286°
2026-05-05 07:16 18.69515 80.02581 39883 ft 457 kts 286°
2026-05-05 07:16 18.71416 79.96185 39884 ft 457 kts 286°
2026-05-05 07:17 18.73316 79.89782 39885 ft 457 kts 286°
2026-05-05 07:17 18.75215 79.83376 39882 ft 457 kts 286°
2026-05-05 07:18 18.77112 79.76968 39880 ft 457 kts 286°
2026-05-05 07:18 18.79006 79.70561 39887 ft 457 kts 286°
2026-05-05 07:19 18.80885 79.64199 39885 ft 457 kts 286°
2026-05-05 07:19 18.82784 79.57755 39885 ft 457 kts 286°
2026-05-05 07:20 18.84660 79.51383 39887 ft 457 kts 286°
2026-05-05 07:20 18.86556 79.44934 39887 ft 457 kts 286°
2026-05-05 07:21 18.88427 79.38560 39883 ft 457 kts 286°
2026-05-05 07:21 18.90308 79.32146 39880 ft 457 kts 286°
2026-05-05 07:22 18.92190 79.25716 39884 ft 458 kts 286°
2026-05-05 07:22 18.94068 79.19292 39892 ft 458 kts 286°
2026-05-05 07:23 18.95946 79.12859 39881 ft 458 kts 286°
2026-05-05 07:23 18.97823 79.06421 39879 ft 458 kts 286°
2026-05-05 07:24 18.99695 78.99990 39877 ft 458 kts 286°
2026-05-05 07:24 19.01570 78.93543 39880 ft 458 kts 286°
2026-05-05 07:25 19.03439 78.87101 39877 ft 459 kts 286°
2026-05-05 07:25 19.05298 78.80690 39882 ft 459 kts 286°
2026-05-05 07:26 19.07165 78.74238 39874 ft 459 kts 286°
2026-05-05 07:26 19.09034 78.67775 39865 ft 459 kts 286°
2026-05-05 07:27 19.10900 78.61307 39866 ft 460 kts 286°
2026-05-05 07:27 19.12763 78.54847 39867 ft 460 kts 286°
2026-05-05 07:28 19.14625 78.48375 39870 ft 460 kts 286°
2026-05-05 07:28 19.16485 78.41903 39870 ft 460 kts 286°
2026-05-05 07:29 19.18029 78.36523 39862 ft 460 kts 287°
2026-05-05 07:29 19.19888 78.30037 39861 ft 460 kts 287°
2026-05-05 07:30 19.21740 78.23566 39869 ft 460 kts 287°
2026-05-05 07:30 19.24481 78.13845 39866 ft 459 kts 284°
2026-05-05 07:31 19.25523 78.07183 39865 ft 459 kts 276°
2026-05-05 07:31 19.26164 78.00467 39865 ft 459 kts 276°
2026-05-05 07:32 19.26808 77.93741 39866 ft 459 kts 276°
2026-05-05 07:32 19.27471 77.87053 39869 ft 459 kts 276°
2026-05-05 07:33 19.28144 77.80334 39868 ft 459 kts 276°
2026-05-05 07:33 19.28817 77.73606 39861 ft 459 kts 276°
2026-05-05 07:34 19.29486 77.66890 39875 ft 459 kts 276°
2026-05-05 07:34 19.30153 77.60158 39869 ft 459 kts 276°
2026-05-05 07:35 19.30818 77.53428 39870 ft 459 kts 276°
2026-05-05 07:35 19.31480 77.46699 39875 ft 459 kts 276°
2026-05-05 07:36 19.32138 77.39970 39869 ft 459 kts 276°
2026-05-05 07:36 19.32795 77.33242 39872 ft 459 kts 276°
2026-05-05 07:37 19.33449 77.26515 39882 ft 459 kts 276°
2026-05-05 07:37 19.34096 77.19833 39873 ft 459 kts 276°
2026-05-05 07:38 19.34746 77.13106 39877 ft 459 kts 276°
2026-05-05 07:38 19.35391 77.06385 39873 ft 459 kts 276°
2026-05-05 07:39 19.36035 76.99660 39880 ft 458 kts 276°
2026-05-05 07:39 19.36676 76.92935 39880 ft 458 kts 276°
2026-05-05 07:40 19.37314 76.86222 39880 ft 458 kts 276°
2026-05-05 07:40 19.37970 76.79499 39878 ft 458 kts 277°
2026-05-05 07:41 19.38684 76.72786 39887 ft 458 kts 277°
2026-05-05 07:41 19.39397 76.66120 39889 ft 459 kts 277°
2026-05-05 07:42 19.40110 76.59361 39893 ft 459 kts 277°
2026-05-05 07:42 19.40808 76.52688 39891 ft 459 kts 277°
2026-05-05 07:43 19.41506 76.45972 39892 ft 459 kts 277°
2026-05-05 07:43 19.42203 76.39244 39890 ft 459 kts 277°
2026-05-05 07:44 19.42897 76.32531 39889 ft 459 kts 277°
2026-05-05 07:44 19.43588 76.25811 39888 ft 459 kts 277°
2026-05-05 07:45 19.44279 76.19083 39898 ft 459 kts 277°
2026-05-05 07:45 19.44966 76.12359 39900 ft 460 kts 277°
2026-05-05 07:46 19.45651 76.05622 39899 ft 460 kts 277°
2026-05-05 07:46 19.46335 75.98879 39888 ft 460 kts 277°
2026-05-05 07:47 19.47016 75.92135 39894 ft 460 kts 277°
2026-05-05 07:47 19.47694 75.85399 39886 ft 460 kts 277°
2026-05-05 07:48 19.48370 75.78658 39888 ft 460 kts 277°
2026-05-05 07:48 19.49044 75.71905 39887 ft 460 kts 276°
2026-05-05 07:49 19.49715 75.65166 39900 ft 460 kts 276°
2026-05-05 07:49 19.50392 75.58416 39895 ft 460 kts 277°
2026-05-05 07:50 19.51077 75.51675 39892 ft 460 kts 277°
2026-05-05 07:50 19.51760 75.44929 39899 ft 460 kts 277°
2026-05-05 07:51 19.52438 75.38188 39892 ft 460 kts 276°
2026-05-05 07:51 19.53115 75.31433 39903 ft 460 kts 276°
2026-05-05 07:52 19.53787 75.24695 39906 ft 460 kts 276°
2026-05-05 07:52 19.54458 75.17944 39899 ft 460 kts 276°
2026-05-05 07:53 19.55122 75.11238 39903 ft 460 kts 276°
2026-05-05 07:53 19.55457 75.07844 39375 ft 468 kts 276°
2026-05-05 07:53 19.55796 75.04406 38769 ft 468 kts 276°
2026-05-05 07:54 19.56134 75.00975 38003 ft 468 kts 276°
2026-05-05 07:54 19.56471 74.97540 37259 ft 468 kts 276°
2026-05-05 07:54 19.56806 74.94114 36525 ft 467 kts 276°
2026-05-05 07:54 19.57140 74.90694 35800 ft 467 kts 276°
2026-05-05 07:55 19.57476 74.87254 34924 ft 470 kts 276°
2026-05-05 07:55 19.57813 74.83792 34003 ft 474 kts 275°
2026-05-05 07:55 19.58151 74.80314 33186 ft 474 kts 275°
2026-05-05 07:55 19.58487 74.76849 32512 ft 470 kts 275°
2026-05-05 07:56 19.58819 74.73415 31875 ft 466 kts 275°
2026-05-05 07:56 19.59148 74.70009 31266 ft 462 kts 275°
2026-05-05 07:56 19.59474 74.66638 30647 ft 459 kts 275°
2026-05-05 07:56 19.59796 74.63290 30044 ft 456 kts 275°
2026-05-05 07:57 19.60105 74.59946 29320 ft 452 kts 274°
2026-05-05 07:57 19.60138 74.56634 28623 ft 448 kts 267°
2026-05-05 07:57 19.59853 74.53370 27962 ft 443 kts 263°
2026-05-05 07:57 19.59338 74.50163 27323 ft 439 kts 258°
2026-05-05 07:58 19.58547 74.47051 26698 ft 435 kts 256°
2026-05-05 07:58 19.57696 74.43973 26079 ft 432 kts 255°
2026-05-05 07:58 19.56854 74.40972 25459 ft 429 kts 255°
2026-05-05 07:58 19.55998 74.37917 24830 ft 426 kts 256°
2026-05-05 07:59 19.55173 74.34944 24218 ft 424 kts 256°
2026-05-05 07:59 19.54350 74.31957 23615 ft 422 kts 256°
2026-05-05 07:59 19.53523 74.28935 22896 ft 420 kts 256°
2026-05-05 07:59 19.52724 74.26010 22264 ft 416 kts 256°
2026-05-05 08:00 19.51922 74.23073 21660 ft 412 kts 256°
2026-05-05 08:00 19.51130 74.20172 21078 ft 408 kts 256°
2026-05-05 08:00 19.50341 74.17291 20514 ft 405 kts 256°
2026-05-05 08:00 19.49561 74.14438 19943 ft 401 kts 255°
2026-05-05 08:01 19.48786 74.11606 19384 ft 398 kts 255°
2026-05-05 08:01 19.48015 74.08794 18824 ft 396 kts 255°
2026-05-05 08:01 19.47248 74.05995 18262 ft 394 kts 255°
2026-05-05 08:01 19.46486 74.03215 17612 ft 392 kts 255°
2026-05-05 08:02 19.45726 74.00452 17045 ft 388 kts 255°
2026-05-05 08:02 19.44974 73.97716 16548 ft 384 kts 254°
2026-05-05 08:02 19.44243 73.95059 16409 ft 370 kts 254°
2026-05-05 08:02 19.43534 73.92482 16244 ft 358 kts 254°
2026-05-05 08:03 19.42848 73.89991 16094 ft 347 kts 254°
2026-05-05 08:03 19.42181 73.87579 15933 ft 336 kts 253°
2026-05-05 08:03 19.41325 73.85311 15606 ft 330 kts 244°
2026-05-05 08:03 19.40242 73.83168 15279 ft 327 kts 240°
2026-05-05 08:04 19.39115 73.81085 14947 ft 325 kts 240°
2026-05-05 08:04 19.38002 73.79036 14622 ft 323 kts 240°
2026-05-05 08:04 19.36898 73.76976 14290 ft 321 kts 240°
2026-05-05 08:04 19.35809 73.74915 13949 ft 320 kts 240°
2026-05-05 08:05 19.34733 73.72858 13604 ft 318 kts 239°
2026-05-05 08:05 19.33673 73.70818 13246 ft 315 kts 240°
2026-05-05 08:05 19.32627 73.68798 12909 ft 312 kts 239°
2026-05-05 08:05 19.31589 73.66790 12572 ft 309 kts 239°
2026-05-05 08:06 19.30561 73.64803 12253 ft 307 kts 239°
2026-05-05 08:06 19.29538 73.62820 11934 ft 306 kts 239°
2026-05-05 08:06 19.28522 73.60851 11623 ft 304 kts 239°
2026-05-05 08:06 19.27509 73.58891 11308 ft 303 kts 239°
2026-05-05 08:07 19.26504 73.56946 10988 ft 301 kts 239°
2026-05-05 08:07 19.25503 73.55008 10680 ft 298 kts 239°
2026-05-05 08:07 19.24512 73.53089 10366 ft 297 kts 239°
2026-05-05 08:07 19.23525 73.51182 10059 ft 294 kts 238°
2026-05-05 08:08 19.22549 73.49296 9747 ft 292 kts 238°
2026-05-05 08:08 19.21578 73.47417 9409 ft 289 kts 239°
2026-05-05 08:08 19.20747 73.45488 9092 ft 287 kts 248°
2026-05-05 08:08 19.20129 73.43496 8792 ft 284 kts 250°
2026-05-05 08:09 19.19564 73.41508 8500 ft 281 kts 251°
2026-05-05 08:09 19.19004 73.39537 8188 ft 279 kts 251°
2026-05-05 08:09 19.18438 73.37579 7911 ft 277 kts 251°
2026-05-05 08:09 19.17869 73.35641 7633 ft 275 kts 251°
2026-05-05 08:10 19.17295 73.33708 7340 ft 275 kts 251°
2026-05-05 08:10 19.16718 73.31782 7054 ft 273 kts 251°
2026-05-05 08:10 19.16144 73.29875 6763 ft 272 kts 252°
2026-05-05 08:10 19.15568 73.27971 6481 ft 270 kts 252°
2026-05-05 08:11 19.14998 73.26087 6188 ft 269 kts 252°
2026-05-05 08:11 19.14430 73.24210 5908 ft 268 kts 252°
2026-05-05 08:11 19.13862 73.22335 5611 ft 267 kts 252°
2026-05-05 08:11 19.13296 73.20466 5334 ft 267 kts 252°
2026-05-05 08:12 19.12731 73.18607 5061 ft 265 kts 252°
2026-05-05 08:12 19.12357 73.17385 4894 ft 263 kts 252°
2026-05-05 08:12 19.11621 73.14968 4565 ft 259 kts 252°
2026-05-05 08:12 19.11073 73.13164 4311 ft 256 kts 252°
2026-05-05 08:13 19.10534 73.11391 4059 ft 247 kts 252°
2026-05-05 08:13 19.10189 73.10262 3902 ft 232 kts 252°
2026-05-05 08:13 19.09570 73.08236 3580 ft 205 kts 252°
2026-05-05 08:13 19.09167 73.06863 3396 ft 187 kts 259°
2026-05-05 08:14 19.09071 73.05497 3224 ft 190 kts 270°
2026-05-05 08:14 19.09089 73.04097 2985 ft 192 kts 269°
2026-05-05 08:14 19.09090 73.03127 2760 ft 195 kts 269°
2026-05-05 08:14 19.09073 73.01343 2455 ft 173 kts 269°
2026-05-05 08:15 19.09056 73.00127 2237 ft 157 kts 268°
2026-05-05 08:15 19.09047 72.99391 2109 ft 144 kts 268°
2026-05-05 08:15 19.09032 72.98393 1936 ft 128 kts 269°
2026-05-05 08:15 19.09020 72.97480 1804 ft 126 kts 270°
2026-05-05 08:16 19.09006 72.96515 1621 ft 133 kts 268°
2026-05-05 08:16 19.08992 72.95540 1449 ft 133 kts 268°
2026-05-05 08:16 19.08978 72.94569 1273 ft 132 kts 271°
2026-05-05 08:16 19.08967 72.93592 1117 ft 132 kts 270°
2026-05-05 08:17 19.08955 72.92642 954 ft 127 kts 268°
2026-05-05 08:17 19.08938 72.91688 790 ft 131 kts 269°
2026-05-05 08:17 19.08925 72.90727 631 ft 130 kts 271°
2026-05-05 08:17 19.08921 72.90500 571 ft 125 kts 270°
2026-05-05 08:18 19.08918 72.90326 542 ft 122 kts 270°
2026-05-05 08:18 19.08906 72.89396 394 ft 130 kts 270°
2026-05-05 08:18 19.08895 72.88451 233 ft 130 kts 271°
2026-05-05 08:18 19.08883 72.87513 85 ft 127 kts 270°
2026-05-05 08:19 19.08870 72.86666 49 ft 92 kts 269°
2026-05-05 08:19 19.08863 72.86181 52 ft 41 kts 269°
2026-05-05 08:19 19.08907 72.85917 48 ft 28 kts 298°
2026-05-05 08:19 19.08971 72.85822 49 ft 13 kts 332°
2026-05-05 08:20 19.09025 72.85850 46 ft 9 kts 68°
2026-05-05 08:20 19.09032 72.85917 53 ft 9 kts 89°
2026-05-05 08:20 19.09033 72.85984 53 ft 9 kts 89°
2026-05-05 08:20 19.09034 72.86051 53 ft 9 kts 89°
2026-05-05 08:21 19.09034 72.86118 53 ft 9 kts 89°
2026-05-05 08:21 19.09035 72.86186 53 ft 9 kts 89°
2026-05-05 08:21 19.09036 72.86253 53 ft 9 kts 89°
2026-05-05 08:21 19.09037 72.86320 53 ft 9 kts 89°
2026-05-05 08:22 19.09038 72.86388 53 ft 9 kts 89°
2026-05-05 08:22 19.09038 72.86455 48 ft 9 kts 89°
2026-05-05 08:22 19.09039 72.86524 48 ft 11 kts 89°
2026-05-05 08:22 19.09041 72.86615 52 ft 13 kts 89°
2026-05-05 08:23 19.09043 72.86729 52 ft 11 kts 83°
2026-05-05 08:23 19.09075 72.86792 46 ft 8 kts 47°
2026-05-05 08:23 19.09111 72.86834 50 ft 8 kts 47°
2026-05-05 08:23 19.09122 72.86845 46 ft 1 kts 47°
2026-05-05 08:24 19.09125 72.86854 47 ft 3 kts 66°
2026-05-05 08:24 19.09131 72.86889 48 ft 7 kts 85°
2026-05-05 08:24 19.09134 72.86954 54 ft 10 kts 88°
2026-05-05 08:24 19.09136 72.87036 53 ft 9 kts 82°
2026-05-05 08:25 19.09174 72.87077 50 ft 8 kts 17°
2026-05-05 08:25 19.09215 72.87062 46 ft 5 kts 316°
2026-05-05 08:25 19.09254 72.87049 51 ft 7 kts 13°
2026-05-05 08:25 19.09293 72.87071 51 ft 3 kts 32°
2026-05-05 08:26 19.09305 72.87079 48 ft 0 kts 32°
2026-05-05 08:26 19.09307 72.87080 48 ft 1 kts 32°
2026-05-05 08:26 19.09312 72.87084 46 ft 1 kts 32°
2026-05-05 08:26 19.09315 72.87086 47 ft 0 kts 32°
2026-05-05 08:30 19.09315 72.87085 47 ft 0 kts 32°
2026-05-05 08:43 19.09314 72.87085 54 ft 0 kts 32°